User: anonymous   Login
Location: Caltech
(34.1382°N, 118.1253°W)
Time: 23:28:54
(UTC-07:00)
Language:

ALOS - Orbit

View from above orbital plane
View from above orbital plane
View from above satellite
View from above satellite

Ground track
Ground track

The orbit data is extracted from the following two-line orbital elements,

1 28931U 06002A   18169.46057810 +.00000092 +00000-0 +26788-4 0  9993
2 28931 097.8198 182.9651 0000575 098.3853 261.7412 14.62501368660991
Epoch (UTC): 18 June 2018 11:03:13
Eccentricity: 0.0000575
inclination: 97.8198°
perigee height: 685 km
apogee height: 685 km
right ascension of ascending node: 182.9651°
argument of perigee: 98.3853°
revolutions per day: 14.62501368
mean anomaly at epoch: 261.7412°
orbit number at epoch: 66099

The dashed part of the orbit path shows where the satellite is in the earth's shadow,  

DLR